Weather Roundup
Issued by NWS

Home | Current Version | Previous Version | Text Only | Print | Product List | Glossary On
Versions: 1 2 3 4 5 6 7 8 9 10 11 12 13 14 15 16 17 18 19 20 21 22 23 24 25 26 27 28 29 30 31 32 33 34 35 36 37 38 39 40 41 42 43 44 45 46 47 48 49 50
000
NZUS93 KARX 042110
HRRWXR

CURRENT HOURLY OBSERVATIONS ACROSS
MUCH OF THE UPPER MISSISSIPPI VALLEY
NATIONAL WEATHER SERVICE LA CROSSE WI
400 PM CDT SAT JUL 04 2015


...SOUTHEAST MINNESOTA...


CITY           SKY/WX    TMP DP  RH WIND       PRES   REMARKS
ROCHESTER      MOSUNNY   81  64  56 SW12      29.97F
ROCHESTER/MAYO MOCLDY    81  62  53 SW6       29.96F
WINONA         SUNNY     81  63  54 SW5       29.95F
AUSTIN         MOSUNNY   82  61  47 SW7       29.98S
ALBERT LEA     SUNNY     81  61  50 SW5       29.97F
DODGE CENTER   MOSUNNY   81  64  57 S9        29.97F
PRESTON        MOSUNNY   79  63  58 SW7       29.99S
OWATONNA       SUNNY     82  61  47 SW10      29.96S
FARIBAULT      SUNNY     82  66  57 S8        29.95F HAZE
$$

...ELSEWHERE IN MINNESOTA...


CITY           SKY/WX    TMP DP  RH WIND       PRES   REMARKS
MINNEAPOLIS    PTSUNNY   85  62  46 S9        29.92F HAZE
INTNL FALLS    SUNNY     81  58  45 SW10      29.87F
DULUTH         SUNNY     73  60  63 SE10      29.95S
RED WING       MOSUNNY   84  64  51 S6        29.92F HAZE
REDWOOD FALLS  MOSUNNY   85  64  49 S13       29.90F
MANKATO        MOSUNNY   81  63  54 S13       29.94S
WORTHINGTON    MOSUNNY   79  61  53 S16       29.95S
FAIRMONT       MOSUNNY   81  59  47 S7        29.95F
$$

...SOUTHWEST WISCONSIN...


CITY           SKY/WX    TMP DP  RH WIND       PRES   REMARKS
LA CROSSE      SUNNY     83  64  52 S9        29.95S
PRAIRIE DU CHI MOSUNNY   80  59  48 SW7       29.97F
BOSCOBEL       SUNNY     83  60  45 VRB7      29.98S
LONE ROCK      SUNNY     82  59  45 SW9       29.98S
PLATTEVILLE    MOSUNNY   80  59  49 W10       30.00S
FORT MC COY    PTSUNNY   80  60  49 CALM      29.97S
CAMP DOUGLAS   SUNNY     82  65  56 VRB6      29.96S
VIROQUA        FAIR      80  63  54 SW8       30.00S
WIS DELLS      SUNNY     80  58  46 SW9       29.98S
$$

...ELSEWHERE IN WISCONSIN...


CITY           SKY/WX    TMP DP  RH WIND       PRES   REMARKS
MILWAUKEE      MOSUNNY   79  61  53 SE14      29.98F
MADISON        MOSUNNY   81  60  48 VRB5      29.98S
GREEN BAY      MOSUNNY   80  65  59 NE7       29.97R
EAU CLAIRE     MOSUNNY   82  62  50 SW8       29.94S HAZE
BLACK RVR FLS  FAIR      84  60  45 SW8       29.95F
MEDFORD        SUNNY     80  59  48 SW7       29.98S
WAUSAU         MOSUNNY   82  58  43 SW6       29.95S
WIS RAPIDS     SUNNY     82  61  48 VRB5      29.98S
MARSHFIELD     SUNNY     80  61  52 SW3       29.97S HAZE
RICE LAKE      SUNNY     82  59  46 S7        29.96S HAZE
$$

...NORTHEAST IOWA...


CITY           SKY/WX    TMP DP  RH WIND       PRES   REMARKS
DECORAH          N/A    N/A N/A N/A MISG        N/A
MASON CITY     SUNNY     81  61  50 SW13      29.99F
CHARLES CITY   SUNNY     79  64  61 S6G13     29.99F
OELWEIN        SUNNY     79  59  50 W7G13     30.00F
$$

...ELSEWHERE IN IOWA...


CITY           SKY/WX    TMP DP  RH WIND       PRES   REMARKS
DES MOINES     CLOUDY    82  58  43 S6        29.98F
IOWA CITY      SUNNY     80  59  48 S7        30.00F
FORT DODGE     SUNNY     81  59  47 S8        29.98F
$$

...NORTHERN ILLINOIS...


CITY           SKY/WX    TMP DP  RH WIND       PRES   REMARKS
CHICAGO-OHARE  MOSUNNY   81  53  37 CALM      29.99S
CHICAGO-MIDWAY MOSUNNY   83  58  42 SW8       29.99S
MOLINE         SUNNY     81  60  48 SW8       30.00S
ROCKFORD       MOSUNNY   81  61  50 W5        30.01S
PEORIA         SUNNY     81  56  42 CALM      30.01S
$$

NOTE: "FAIR" INDICATES FEW OR NO CLOUDS BELOW 12,000 FEET WITH NO
SIGNIFICANT WEATHER AND/OR OBSTRUCTIONS TO VISIBILITY. WIND
SPEEDS ARE IN MILES-PER-HOUR.



USA.gov is the U.S. government's official web portal to all federal, state and local government web resources and services.